Tallahassee, FL

12:41 AM EST on December 18, 2017 (GMT -0500)
Tallahassee Regional

Weather History for KTLH - March, 2014

Change the Weather History Date:

Tuesday, March 18, 2014

  Actual Average Record
Temperature  
Mean Temperature 60 °F 61 °F  
Max Temperature 66 °F 74 °F 88 °F (1963)
Min Temperature 53 °F 48 °F 28 °F (1971)
Degree Days  
Heating Degree Days 5    
Month to date heating degree days 139  
Since 1 July heating degree days 1282  
Cooling Degree Days 0    
Month to date cooling degree days 1  
Year to date cooling degree days 13  
Growing Degree Days 10 (Base 50)    
Moisture  
Dew Point 51 °F    
Average Humidity 73    
Maximum Humidity 93    
Minimum Humidity 52    
Precipitation  
Precipitation 0.51 in 0.19 in 3.94 in (1942)
Month to date precipitation 8.38 3.76  
Year to date precipitation 16.43 12.95  
Sea Level Pressure  
Sea Level Pressure 29.89 in    
Wind  
Wind Speed 7 mph (NW)    
Max Wind Speed 23 mph    
Max Gust Speed 29 mph    
Visibility 9 miles    
Events Rain    
T = Trace of Precipitation, MM = Missing Value Source: NWS Daily Summary

Daily Weather History Graph

Daily Weather History Graph

Search for Another Location

Airport or City:

Trip Planner

Search our weather history database for the weather conditions in past years. The results will help you decide how hot, cold, wet, or windy it might be!

Date:

Astronomy

Mar. 18, 2014 Rise Set
Actual Time 7:43 AM EDT 7:47 PM EDT
Civil Twilight 7:19 AM EDT 8:11 PM EDT
Nautical Twilight 6:51 AM EDT 8:39 PM EDT
Astronomical Twilight 6:23 AM EDT 9:07 PM EDT
Moon 9:52 PM EDT 8:41 AM EDT
Length of Visible Light 12h 51m
Length of Day
12h 03m
Waning Gibbous, 96% of the Moon is Illuminated
Mar 18
Waning Gibbous
Mar 23
Last Quarter
Mar 30
New
Apr 7
First Quarter
Apr 15
Full

Hourly Weather History & Observations

Time (EDT) Temp. Dew Point Humidity Pressure Visibility Wind Dir Wind Speed Gust Speed Precip Events Conditions
12:18 AM 60.8 °F 57.2 °F 88% 29.75 in 2.5 mi Calm Calm - 0.10 in Rain Heavy Rain
12:25 AM 60.8 °F 57.2 °F 88% 29.75 in 5.0 mi Calm Calm - 0.11 in Rain Light Rain
12:53 AM 60.1 °F 57.0 °F 90% 29.73 in 9.0 mi NE 3.5 mph - 0.16 in Rain Light Rain
1:53 AM 60.1 °F 57.0 °F 90% 29.74 in 10.0 mi WSW 3.5 mph - 0.04 in   Overcast
2:32 AM 60.8 °F 57.2 °F 88% 29.76 in 2.5 mi SW 9.2 mph - 0.10 in Rain Heavy Rain
2:41 AM 60.8 °F 57.2 °F 88% 29.75 in 2.0 mi West 8.1 mph - 0.19 in Rain Heavy Rain
2:53 AM 57.9 °F 54.0 °F 87% 29.75 in 3.0 mi WNW 18.4 mph 28.8 mph 0.27 in Rain Heavy Rain
3:14 AM 57.2 °F 53.6 °F 88% 29.77 in 10.0 mi West 12.7 mph 21.9 mph 0.02 in Rain Light Rain
3:53 AM 55.9 °F 53.1 °F 90% 29.76 in 8.0 mi NW 15.0 mph - 0.16 in Rain Rain
4:53 AM 55.9 °F 52.0 °F 87% 29.76 in 9.0 mi NNW 8.1 mph - 0.03 in Rain Light Rain
5:53 AM 55.9 °F 52.0 °F 87% 29.74 in 10.0 mi NNE 3.5 mph - 0.02 in   Mostly Cloudy
6:53 AM 53.1 °F 51.1 °F 93% 29.79 in 10.0 mi WSW 5.8 mph - N/A   Partly Cloudy
7:02 AM 53.6 °F 51.8 °F 94% 29.80 in 10.0 mi West 6.9 mph - N/A   Mostly Cloudy
7:11 AM 55.4 °F 51.8 °F 88% 29.81 in 10.0 mi WSW 6.9 mph - N/A   Mostly Cloudy
7:33 AM 55.4 °F 51.8 °F 88% 29.84 in 10.0 mi West 8.1 mph - N/A   Overcast
7:53 AM 55.0 °F 52.0 °F 89% 29.86 in 10.0 mi West 9.2 mph - N/A   Overcast
8:01 AM 55.4 °F 51.8 °F 88% 29.87 in 10.0 mi West 10.4 mph - N/A   Overcast
8:14 AM 55.4 °F 51.8 °F 88% 29.89 in 10.0 mi West 11.5 mph - N/A   Overcast
8:51 AM 55.4 °F 51.8 °F 88% 29.91 in 10.0 mi West 6.9 mph - N/A   Overcast
8:53 AM 55.0 °F 51.1 °F 86% 29.91 in 10.0 mi West 8.1 mph - N/A   Overcast
9:15 AM 55.4 °F 51.8 °F 88% 29.92 in 10.0 mi WNW 6.9 mph - N/A   Overcast
9:24 AM 55.4 °F 51.8 °F 88% 29.93 in 10.0 mi West 11.5 mph - N/A   Overcast
9:53 AM 55.9 °F 51.1 °F 84% 29.95 in 10.0 mi West 8.1 mph - N/A   Mostly Cloudy
10:10 AM 57.2 °F 51.8 °F 82% 29.95 in 10.0 mi NNW 6.9 mph - N/A   Mostly Cloudy
10:44 AM 60.8 °F 48.2 °F 63% 29.96 in 10.0 mi NNW 9.2 mph - N/A   Mostly Cloudy
10:53 AM 59.0 °F 48.9 °F 69% 29.96 in 10.0 mi NNW 10.4 mph - N/A   Mostly Cloudy
11:13 AM 60.8 °F 48.2 °F 63% 29.96 in 10.0 mi NNW 5.8 mph - N/A   Scattered Clouds
11:53 AM 63.0 °F 48.0 °F 58% 29.96 in 10.0 mi Variable 6.9 mph - N/A   Mostly Cloudy
12:53 PM 63.0 °F 48.9 °F 60% 29.96 in 10.0 mi Variable 6.9 mph - N/A   Mostly Cloudy
1:53 PM 61.0 °F 48.9 °F 64% 29.95 in 10.0 mi North 6.9 mph - N/A   Mostly Cloudy
2:53 PM 64.0 °F 48.9 °F 58% 29.94 in 10.0 mi Variable 4.6 mph - N/A   Mostly Cloudy
3:36 PM 64.4 °F 48.2 °F 56% 29.95 in 10.0 mi NNE 5.8 mph - N/A   Scattered Clouds
3:53 PM 64.9 °F 48.9 °F 56% 29.95 in 10.0 mi Variable 4.6 mph - N/A   Scattered Clouds
4:53 PM 66.0 °F 48.9 °F 54% 29.94 in 10.0 mi NNE 8.1 mph - N/A   Scattered Clouds
5:53 PM 64.9 °F 50.0 °F 58% 29.96 in 10.0 mi East 6.9 mph - N/A   Partly Cloudy
6:53 PM 63.0 °F 50.0 °F 63% 29.97 in 10.0 mi East 8.1 mph - N/A   Partly Cloudy
7:53 PM 60.1 °F 48.9 °F 67% 29.99 in 10.0 mi ENE 6.9 mph - N/A   Partly Cloudy
8:53 PM 57.0 °F 48.9 °F 74% 30.01 in 10.0 mi East 6.9 mph - N/A   Partly Cloudy
9:53 PM 55.9 °F 48.9 °F 77% 30.04 in 10.0 mi ENE 6.9 mph - N/A   Mostly Cloudy
10:53 PM 55.9 °F 48.9 °F 77% 30.05 in 10.0 mi East 6.9 mph - N/A   Mostly Cloudy
11:53 PM 55.9 °F 48.9 °F 77% 30.06 in 10.0 mi ESE 4.6 mph - N/A   Overcast